Regional Weather Roundup
Issued by NWS

Home | Current Version | Previous Version | Text Only | Print | Product List | Glossary On
Versions: 1 2 3 4 5 6 7 8 9 10 11 12 13 14 15 16 17 18 19 20 21 22 23 24 25 26 27 28 29 30 31 32 33 34 35 36 37 38 39 40 41 42 43 44 45 46 47 48 49 50
000
ASUS44 KLUB 190901
RWRTX
WEST TEXAS WEATHER ROUNDUP
NATIONAL WEATHER SERVICE LUBBOCK TX
400 AM CDT SAT APR 19 2014

NOTE: "FAIR" INDICATES FEW OR NO CLOUDS BELOW 12,000 FEET WITH NO
SIGNIFICANT WEATHER AND/OR OBSTRUCTIONS TO VISIBILITY.

TXZ004-006>008-010-012-014-016-OKZ002-191000-
TEXAS PANHANDLE/OKLAHOMA PANHANDLE

CITY           SKY/WX    TMP DP  RH WIND       PRES   REMARKS
AMARILLO       PTCLDY    52  42  69 S21       30.07F
BORGER         PTCLDY    56  43  61 S21G30    30.05F
DALHART        CLEAR     53  43  68 S17       30.06S
GUYMON         MOCLDY    53  44  71 S15       30.01S
$$

TXZ026-029-035-045-048-191000-
SOUTHERN PANHANDLE/SOUTH PLAINS/ROLLING PLAINS

CITY           SKY/WX    TMP DP  RH WIND       PRES   REMARKS
CHILDRESS      PTCLDY    54  47  77 S10       30.10S
LUBBOCK        MOCLDY    53  42  66 SE12      30.08F
$$

TXZ052-054-060>062-072-078-127-140-154-169-191000-
PERMIAN BASIN/CONCHO VALLEY/BIG COUNTRY/EDWARDS PLATEAU

CITY           SKY/WX    TMP DP  RH WIND       PRES   REMARKS
ABILENE        PTCLDY    57  49  74 SE14      30.10F
BROWNWOOD      CLOUDY    50  48  93 CALM      30.12F
JUNCTION       PTCLDY    62  53  72 VRB5      30.10F
MIDLAND        CLOUDY    58  46  64 SE6       30.06F
ODESSA         CLOUDY    62  49  62 S10       30.07S
SAN ANGELO     CLEAR     61  51  70 SE9       30.08S
WINK           CLOUDY    64  50  60 SE9       30.03S
$$

TXZ055-058-074-075-080-082-191000-
FAR WEST/SOUTHWEST MOUNTAINS/TRANS PECOS

CITY           SKY/WX    TMP DP  RH WIND       PRES   REMARKS
DRYDEN           N/A     64  52  64 E13       30.02F
EL PASO        MOCLDY    64  46  52 SE6       29.99S
FORT STOCKTON  MOCLDY    62  50  64 S17       30.02F
MARFA          CLOUDY    55  45  67 N3        30.10F
PECOS          MOCLDY    63  49  61 E12       30.02R
PRESIDIO       FAIR      66  49  54 NE13G18   29.98S
$$

TXZ014-016-019-021>030-083-191000
TEXAS TECH WEST TEXAS MESONET/TEXAS PANHANDLE/NORTHERN SOUTH PLAINS

CITY           SKY/WX    TMP DP  RH WIND       PRES   REMARKS
ABERNATHY 5ENE   N/A     48  41  76 SE9       30.09F
AMARILLO 9NNE    N/A     54  43  65 SE13      30.07S
AMARILLO 7SSE    N/A     51  42  71 S15       30.09S
AMHERST 1NE      N/A     53  42  66 S10       30.08F
BOOTLEG 11WNW    N/A     53  42  66 S17       30.10S
CANADIAN 6E      N/A     55  47  75 SE10      30.07S
CAPROCK CYN SP   N/A     50  44  79 S8        30.10S
CHILDRESS 2NNE   N/A     54  48  79 SE13      30.09S
CLARENDON 2WSW   N/A     52  45  76 S12       30.09F
CLAUDE 12SW      N/A     54  43  67 S9        30.09S
DIMMITT 2NE      N/A     47  40  77 SE10      30.09S
FLOYDADA 2NNE    N/A     50  42  74 SE12      30.09F
FRIONA 2NE       N/A     51  42  70 S13       30.10R
GOODLETT 3W      N/A     54  47  79 S6        30.09S
HART 3N          N/A     47  41  80 SE7       30.09F
HEREFORD 2NW     N/A     50  40  70 S8        30.09R
MCLEAN 1E        N/A     52  47  83 S12       30.08S
MEMPHIS 1NE      N/A     48  43  81 CALM      30.10S
MULESHOE 2SSW    N/A     54  43  66 S6        30.10R
OLTON 6S         N/A     48  40  75 SE7       30.08F
PALO DURO SP     N/A     53  42  66 S12       30.10F
PAMPA 2E         N/A     52  45  78 S17       30.08S
PLAINVIEW 1S     N/A     50  43  77 SE6       30.09S
SILVERTON 7ESE   N/A     51  43  74 S10       30.10S
TULIA 2ENE       N/A     47  42  82 SE7       30.09F
TURKEY 2WSW      N/A     49  43  81 S7        30.09S
UMBARGER 3NNE    N/A     50  41  71 S12       30.09S
$$

TXZ033>036-039>041-045>048-191000
TEXAS TECH WEST TEXAS MESONET/SOUTH PLAINS

CITY           SKY/WX    TMP DP  RH WIND       PRES   REMARKS
AIKEN 3WSW       N/A     48  42  79 SE9       30.10S
ANDREWS 2NE      N/A     55  42  62 E3        30.08S
ANTON 6SSW       N/A     54  43  65 SE12      30.08F
BROWNFIELD 2S    N/A     52  42  67 SE8       30.09R
DENVR CTY 7WNW   N/A     53  42  67 SE7       30.09S
GAIL 2ESE        N/A     55  45  68 SE8       30.07S
LAMESA 2SE       N/A     53  42  65 SE5       30.09S
LEVELLAND 4S     N/A     55  41  60 SE12      30.08S
LUBBOCK 3WNW     N/A     56  43  62 SE12      30.08F
MORTON 1ENE      N/A     54  43  65 S10       30.09S
ODONNELL 1N      N/A     55  42  63 SE7       30.09S
PLAINS 3N        N/A     55  43  63 SE7       30.10R
RALLS 1SE        N/A     48  40  72 SE7       30.11S
REESE CENTER     N/A     54  42  63 SE13      30.08F
SEAGRAVES 1SW    N/A     53  43  69 SE3       30.09R
SEMINOLE 2NNE    N/A     51  42  71 SE3       30.08S
SLATON 2NE       N/A     48  41  75 SE6       30.09F
SNYDER 3E        N/A     56  49  76 SE12      30.08S
SUNDOWN 8SW      N/A     54  42  65 S8        30.09S
TAHOKA 3NNE      N/A     52  42  67 SE7       30.08F
WOLFFORTH 6SSW   N/A     55  42  61 SE12      30.08F
$$

TXZ031-032-036>038-042>044-191000-
TEXAS TECH WEST TEXAS MESONET/ROLLING PLAINS

CITY           SKY/WX    TMP DP  RH WIND       PRES   REMARKS
ASPERMONT 3NE    N/A     57  48  71 SE8       30.09S
FLUVANNA 3WNW    N/A     55  46  71 SE9       30.08S
GRAHAM 5SSW      N/A     55  45  67 SE10      30.09S
GUTHRIE 10WSW    N/A     54  46  74 SE10      30.08S
HASKELL 1NW      N/A     58  48  69 SE8       30.09F
JAYTON 1SSE      N/A     53  46  76 SE7       30.08F
KNOX CITY 3NW    N/A     53  46  77 SE6       30.10S
LK A HENRY 1NW   N/A     55  46  71 E5        30.08S
NORTHFIELD 1S    N/A     54  47  78 S6        30.09S
ODELL 4ENE       N/A     56  51  81 SE12      30.10F
PADUCAH 10SW     N/A     48  44  85 S6        30.09F
POST 1NE         N/A     55  45  71 SE5       30.09S
RRING SPRGS 3N   N/A     48  44  85 S8        30.09F
SEYMOUR 3NW      N/A     56  49  78 SE9       30.09F
SPUR 1W          N/A     50  43  76 CALM      30.09S
WEINERT 2NNE     N/A     55  48  76 SE8       30.10S
WHITE RVR 6NE    N/A     54  43  66 SE2       30.09F
$$

TXZ052-054-060>062-072-078-127-140-154-169-191000-
TEXAS TECH WEST TEXAS MESONET/PERMIAN BASIN/
CONCHO VALLEY/BIG COUNTRY/EDWARDS PLATEAU

CITY           SKY/WX    TMP DP  RH WIND       PRES   REMARKS
COYANOSA 2N      N/A     64  50  60 SE13      30.02F
JUNCTION 1SSW    N/A     61  53  74 SE6       30.10S
MERTZON 3NNE     N/A     57  46  66 E1        30.09F
SAN ANGELO 7NW   N/A     61  49  66 SE10      30.09S
STRLNG CT 4WSW   N/A     56  45  65 E6        30.09S
ST LAWRNCE 5SW   N/A     56  44  63 SE10      30.07S
SWEETWATR 11SW   N/A     58  50  75 SE16      30.10S
WALL 1E          N/A     60  49  68 SE10      30.09S
$$

TXZ055-058-074-075-080-082-191000-
TEXAS TECH WEST TEXAS MESONET/FAR WEST/SOUTHWEST MOUNTAINS/TRANS PECOS

CITY           SKY/WX    TMP DP  RH WIND       PRES   REMARKS
PRSMN GAP BBNP   N/A     63  50  62 N15       30.03F
$$



USA.gov is the U.S. government's official web portal to all federal, state and local government web resources and services.